TimeCST,TemperatureF,Dew PointF,Humidity,Sea Level PressureIn,VisibilityMPH,Wind Direction,Wind SpeedMPH,Gust SpeedMPH,PrecipitationIn,Events,Conditions,WindDirDegrees,DateUTC
12:56 AM,39.9,37.0,89,30.25,7.0,Calm,Calm,-,N/A,,Clear,0,2013-03-08 06:56:00
1:29 AM,37.4,35.6,93,30.26,2.5,Calm,Calm,-,N/A,,Clear,0,2013-03-08 07:29:00
1:37 AM,41.0,37.4,87,30.26,8.0,Variable,3.5,-,N/A,,Clear,0,2013-03-08 07:37:00
1:56 AM,39.9,37.0,89,30.25,9.0,Calm,Calm,-,N/A,,Clear,0,2013-03-08 07:56:00
2:56 AM,37.9,35.1,89,30.25,8.0,Calm,Calm,-,N/A,,Clear,0,2013-03-08 08:56:00
3:56 AM,37.9,35.1,89,30.25,8.0,Calm,Calm,-,N/A,,Clear,0,2013-03-08 09:56:00
4:56 AM,36.0,34.0,93,30.26,9.0,NE,3.5,-,N/A,,Clear,40,2013-03-08 10:56:00
5:56 AM,39.0,34.0,82,30.27,8.0,NNE,3.5,-,N/A,,Partly Cloudy,20,2013-03-08 11:56:00
6:56 AM,43.0,35.1,74,30.30,7.0,Calm,Calm,-,N/A,,Partly Cloudy,0,2013-03-08 12:56:00
7:56 AM,50.0,37.0,61,30.31,8.0,NNE,6.9,-,N/A,,Partly Cloudy,30,2013-03-08 13:56:00
8:56 AM,55.9,33.1,42,30.32,10.0,NE,4.6,-,N/A,,Partly Cloudy,50,2013-03-08 14:56:00
9:56 AM,60.1,32.0,35,30.31,10.0,NE,3.5,-,N/A,,Scattered Clouds,50,2013-03-08 15:56:00
10:56 AM,63.0,33.1,33,30.30,10.0,NE,8.1,-,N/A,,Mostly Cloudy,40,2013-03-08 16:56:00
11:56 AM,66.0,33.1,29,30.28,10.0,North,4.6,-,N/A,,Mostly Cloudy,10,2013-03-08 17:56:00
12:56 PM,69.1,30.9,24,30.25,10.0,Variable,3.5,-,N/A,,Scattered Clouds,0,2013-03-08 18:56:00
1:56 PM,72.0,30.9,22,30.21,10.0,Variable,6.9,-,N/A,,Scattered Clouds,0,2013-03-08 19:56:00
2:56 PM,71.1,30.0,22,30.21,10.0,SE,3.5,-,N/A,,Partly Cloudy,140,2013-03-08 20:56:00
3:56 PM,72.0,28.9,20,30.19,10.0,Calm,Calm,-,N/A,,Clear,0,2013-03-08 21:56:00
4:56 PM,66.0,39.9,38,30.20,10.0,SSW,9.2,-,N/A,,Partly Cloudy,200,2013-03-08 22:56:00
5:56 PM,60.1,42.1,51,30.22,10.0,SW,6.9,-,N/A,,Partly Cloudy,220,2013-03-08 23:56:00
6:56 PM,57.0,41.0,55,30.22,10.0,SSW,3.5,-,N/A,,Partly Cloudy,210,2013-03-09 00:56:00
7:56 PM,54.0,41.0,62,30.22,10.0,Calm,Calm,-,N/A,,Partly Cloudy,0,2013-03-09 01:56:00
8:56 PM,53.1,42.1,66,30.21,10.0,Calm,Calm,-,N/A,,Partly Cloudy,0,2013-03-09 02:56:00
9:56 PM,48.9,42.1,77,30.21,10.0,Calm,Calm,-,N/A,,Partly Cloudy,0,2013-03-09 03:56:00
10:56 PM,48.0,42.1,80,30.21,10.0,NW,3.5,-,N/A,,Partly Cloudy,320,2013-03-09 04:56:00
11:56 PM,48.0,42.1,80,30.22,10.0,West,3.5,-,N/A,,Clear,280,2013-03-09 05:56:00